Location: Borojevi?i
(45.0486°N, 16.2297°E)
Time: 20:56:39
(UTC+00:00)

Cosmos 2242 Rocket - Pass Details

Date: 08 August 2020
Orbit: 618 x 652 km, 82.5° (Epoch: 22 September)

Event Time Altitude Azimuth Distance (km) Brightness Sun altitude
Rises 20:40:10 0° 351° (N) 2,930 8.1 -21.3°
Reaches altitude 10° 20:42:26 10° 351° (N) 2,012 7.1 -21.5°
Maximum altitude 20:46:54 89° 87° (E) 630 3.5 -22.0°
Enters shadow 20:47:31 66° 171° (S) 684 3.4 -22.1°
